CFG1580 EDDF-LGKR

Flight info

Callsign CFG1580
Flight time N/A
Altitude 35000
Route CINDY8S/18 CINDY Z74 LAMPU DCT NOMBO Y161 MAH DCT VAVOR DCT RADIZ DCT NERRA DCT KOFER DCT RODON DCT LIMJA N732 PITAS
Aircraft A321/M-SDE3FGIJ1LORVWXYZ/LB1

Departure

Time 2026-05-04 11:53
Airport Frankfurt Main Airport (EDDF)

Arrival

Time N/A
Airport Corfu Ioannis Kapodistrias International Airport (LGKR)
Time Latitude Longitude Altitude Speed Heading
2026-05-04 11:17 50.04748 8.58173 362 ft 0 kts 159°
2026-05-04 11:41 50.04760 8.58166 366 ft 4 kts 159°
2026-05-04 11:41 50.04785 8.58151 361 ft 4 kts 151°
2026-05-04 11:41 50.04805 8.58126 364 ft 4 kts 123°
2026-05-04 11:41 50.04812 8.58092 360 ft 3 kts 72°
2026-05-04 11:42 50.04811 8.58087 359 ft 0 kts 70°
2026-05-04 11:46 50.04818 8.58118 364 ft 8 kts 70°
2026-05-04 11:46 50.04843 8.58222 360 ft 10 kts 70°
2026-05-04 11:46 50.04872 8.58342 361 ft 13 kts 69°
2026-05-04 11:46 50.04902 8.58469 363 ft 12 kts 70°
2026-05-04 11:47 50.04930 8.58586 359 ft 11 kts 70°
2026-05-04 11:47 50.04915 8.58658 364 ft 7 kts 145°
2026-05-04 11:47 50.04845 8.58712 364 ft 14 kts 162°
2026-05-04 11:47 50.04764 8.58756 368 ft 10 kts 162°
2026-05-04 11:48 50.04710 8.58770 369 ft 6 kts 181°
2026-05-04 11:48 50.04677 8.58767 370 ft 6 kts 184°
2026-05-04 11:48 50.04607 8.58739 371 ft 12 kts 208°
2026-05-04 11:48 50.04548 8.58670 371 ft 10 kts 219°
2026-05-04 11:49 50.04497 8.58603 370 ft 9 kts 226°
2026-05-04 11:49 50.04474 8.58537 370 ft 0 kts 252°
2026-05-04 11:52 50.04461 8.58472 371 ft 21 kts 251°
2026-05-04 11:52 50.04323 8.57896 369 ft 90 kts 250°
2026-05-04 11:52 50.04037 8.56706 360 ft 143 kts 249°
2026-05-04 11:53 50.03644 8.55044 375 ft 181 kts 249°
2026-05-04 11:53 50.03219 8.53267 985 ft 175 kts 250°
2026-05-04 11:53 50.02795 8.51494 1633 ft 174 kts 245°
2026-05-04 11:53 50.02075 8.49974 2103 ft 185 kts 218°
2026-05-04 11:55 49.94500 8.58459 5644 ft 270 kts 119°
2026-05-04 11:55 49.93604 8.61135 6066 ft 289 kts 119°
2026-05-04 11:56 49.92659 8.63945 6766 ft 290 kts 120°
2026-05-04 11:56 49.91697 8.66667 7720 ft 286 kts 122°
2026-05-04 11:56 49.90714 8.69342 8544 ft 286 kts 122°
2026-05-04 11:56 49.89725 8.72045 9235 ft 290 kts 122°
2026-05-04 11:57 49.89400 8.72928 9464 ft 291 kts 122°